Location: Abraham Lincoln Continuation High School
(33.9711°N, 117.3662°W)
Time: 14:48:31
(UTC+00:00)

X-37B - Pass Details

Date: 21 September 2020
Orbit: 382 x 392 km, 45.0° (Epoch: 15 October)

Event Time Altitude Azimuth Distance (km) Brightness Sun altitude
Exits shadow 11:23:28 11° 27° (NNE) 1,364 3.9 -27.9°
Drops below altitude 10° 11:23:43 10° 31° (NNE) 1,401 4.0 -27.9°
Sets 11:26:51 0° 65° (ENE) 2,255 5.8 -27.3°
